Location: Winthrop
(48.4780°N, 120.1850°W)
Time: 10:52:20
(UTC-07:00)

Vanguard 3 - Pass Details

Date: 05 February 2023
Orbit: 508 x 3249 km, 33.4° (Epoch: 27 March)

Event Time Altitude Azimuth Distance (km) Brightness Sun altitude
Rises 21:24:47 0° 259° (WSW) 4,816 11.6 -42.3°
Reaches altitude 10° 21:27:45 10° 251° (WSW) 4,159 11.1 -42.7°
Enters shadow 21:36:20 38° 206° (SSW) 3,263 10.0 -44.0°
